Location: Newark
(49.2191°N, 12.6671°E)
Time: 16:45:44
(UTC+00:00)

Tiros 1 - Visible Passes

Search period start: 22 January 2020 00:00
Search period end: 01 February 2020 00:00
Orbit: 630 x 664 km, 48.4° (Epoch: 22 January)

Date Brightness Start Highest point End Pass type
(mag) Time Alt. Az. Time Alt. Az. Time Alt. Az.
22 Jan 7.4 16:29:38 10° W 16:34:25 77° S 16:39:14 10° ESE visible
22 Jan 8.3 18:11:55 10° W 18:16:21 38° SSW 18:17:54 30° SSE visible
23 Jan 7.7 16:55:43 10° W 17:00:25 60° SSW 17:05:10 10° ESE visible
23 Jan 9.1 18:38:20 10° W 18:42:04 23° SW 18:43:21 20° SSW visible
24 Jan 8.4 17:21:51 10° W 17:26:19 40° SSW 17:30:48 10° SE visible
24 Jan 9.9 19:05:49 10° WSW 19:07:36 12° SW 19:08:59 11° SSW visible
25 Jan 9.3 17:48:14 10° W 17:52:03 24° SW 17:55:53 10° SSE visible
26 Jan 8.5 16:31:47 10° W 16:36:16 42° SSW 16:40:48 10° SE visible
26 Jan 10.0 18:15:29 10° WSW 18:17:37 13° SW 18:19:45 10° SSW visible
27 Jan 9.4 16:58:07 10° W 17:02:02 25° SW 17:05:57 10° SSE visible
28 Jan 10.1 17:25:12 10° WSW 17:27:37 14° SW 17:30:01 10° SSW visible
30 Jan 10.2 16:34:58 10° WSW 16:37:36 15° SW 16:40:15 10° S visible
